TimeEST,TemperatureF,Dew PointF,Humidity,Sea Level PressureIn,VisibilityMPH,Wind Direction,Wind SpeedMPH,Gust SpeedMPH,PrecipitationIn,Events,Conditions,WindDirDegrees,DateUTC
12:14 AM,36.0,32.4,87,30.08,10.0,SSW,5.8,-,N/A,,Clear,210,2013-02-15 05:14:00
12:34 AM,35.6,32.5,89,30.07,10.0,South,5.8,-,N/A,,Clear,190,2013-02-15 05:34:00
12:54 AM,35.2,33.1,92,30.07,10.0,South,5.8,-,N/A,,Clear,190,2013-02-15 05:54:00
1:14 AM,34.9,34.0,97,30.06,10.0,South,5.8,-,N/A,,Clear,190,2013-02-15 06:14:00
1:34 AM,35.1,34.9,99,30.06,7.0,SSW,5.8,-,N/A,,Clear,200,2013-02-15 06:34:00
1:54 AM,35.1,35.1,100,30.05,7.0,SSW,6.9,-,N/A,,Clear,200,2013-02-15 06:54:00
2:14 AM,35.8,35.8,100,30.05,7.0,SSW,8.1,-,N/A,,Clear,200,2013-02-15 07:14:00
2:34 AM,34.9,34.9,100,30.06,7.0,SW,3.5,-,N/A,,Clear,230,2013-02-15 07:34:00
2:54 AM,35.1,35.1,100,30.06,7.0,SW,4.6,-,N/A,,Clear,220,2013-02-15 07:54:00
3:14 AM,34.5,34.5,100,30.05,7.0,SSW,3.5,-,N/A,,Clear,210,2013-02-15 08:14:00
3:34 AM,34.7,34.7,100,30.05,7.0,Calm,Calm,-,N/A,,Clear,0,2013-02-15 08:34:00
3:54 AM,34.7,34.7,100,30.05,7.0,South,4.6,-,N/A,,Clear,190,2013-02-15 08:54:00
4:14 AM,34.9,34.9,100,30.04,10.0,SSW,3.5,-,N/A,,Clear,200,2013-02-15 09:14:00
4:35 AM,34.7,34.7,100,30.04,7.0,Calm,Calm,-,N/A,,Clear,0,2013-02-15 09:35:00
4:55 AM,34.5,34.5,100,30.05,10.0,South,4.6,-,N/A,,Clear,190,2013-02-15 09:55:00
5:15 AM,34.3,34.3,100,30.05,7.0,South,4.6,-,N/A,,Clear,190,2013-02-15 10:15:00
5:35 AM,34.2,34.2,100,30.05,7.0,SSW,4.6,-,N/A,,Clear,200,2013-02-15 10:35:00
5:53 AM,32.0,32.0,100,30.05,5.0,Calm,Calm,-,N/A,,Clear,0,2013-02-15 10:53:00
5:55 AM,33.3,33.3,100,30.05,5.0,Calm,Calm,-,N/A,,Clear,0,2013-02-15 10:55:00
6:15 AM,33.1,33.1,100,30.05,4.0,South,3.5,-,N/A,,Clear,190,2013-02-15 11:15:00
6:35 AM,33.6,33.6,100,30.06,7.0,SSW,3.5,-,N/A,,Clear,210,2013-02-15 11:35:00
6:40 AM,33.1,33.1,100,30.06,5.0,SSW,3.5,-,N/A,,Clear,210,2013-02-15 11:40:00
6:53 AM,32.0,32.0,100,30.06,4.0,Calm,Calm,-,N/A,,Clear,0,2013-02-15 11:53:00
7:53 AM,37.4,37.4,100,30.08,4.0,SE,3.5,-,N/A,,Clear,130,2013-02-15 12:53:00
8:49 AM,42.8,39.2,87,30.08,10.0,SSW,4.6,-,N/A,,Clear,210,2013-02-15 13:49:00
9:46 AM,46.4,39.2,76,30.08,10.0,SW,5.8,-,N/A,,Clear,220,2013-02-15 14:46:00
10:52 AM,50.0,37.4,62,30.08,10.0,SW,4.6,-,N/A,,Clear,220,2013-02-15 15:52:00
11:50 AM,53.6,37.4,54,30.06,10.0,SSW,3.5,-,N/A,,Clear,200,2013-02-15 16:50:00
12:50 PM,57.2,37.4,48,30.02,10.0,SW,5.8,-,N/A,,Clear,230,2013-02-15 17:50:00
1:53 PM,59.0,37.4,45,29.98,10.0,SSW,5.8,-,N/A,,Clear,200,2013-02-15 18:53:00
2:50 PM,59.0,37.4,45,29.97,10.0,SW,13.8,-,N/A,,Clear,220,2013-02-15 19:50:00
3:53 PM,59.0,35.6,42,29.97,10.0,SW,12.7,-,N/A,,Clear,220,2013-02-15 20:53:00
4:53 PM,55.4,35.6,47,29.95,10.0,SSW,9.2,-,N/A,,Clear,210,2013-02-15 21:53:00
5:50 PM,50.0,37.4,62,29.95,10.0,South,5.8,-,N/A,,Clear,180,2013-02-15 22:50:00
7:53 PM,46.4,37.4,71,29.95,10.0,SSE,5.8,-,N/A,,Clear,160,2013-02-16 00:53:00
8:51 PM,46.4,37.4,71,30.00,10.0,WNW,6.9,-,N/A,,Clear,290,2013-02-16 01:51:00
9:57 PM,42.8,37.0,80,30.04,10.0,North,11.5,18.4,N/A,,Overcast,360,2013-02-16 02:57:00
10:17 PM,42.1,37.4,83,30.05,10.0,North,10.4,20.7,N/A,,Overcast,360,2013-02-16 03:17:00
10:37 PM,41.2,36.0,82,30.05,10.0,North,12.7,24.2,N/A,,Overcast,350,2013-02-16 03:37:00
10:57 PM,40.5,36.1,85,30.05,10.0,North,10.4,-,N/A,,Overcast,350,2013-02-16 03:57:00
11:17 PM,40.1,36.1,86,30.05,10.0,North,11.5,16.1,N/A,,Overcast,350,2013-02-16 04:17:00
11:37 PM,39.4,36.1,88,30.04,10.0,North,10.4,16.1,N/A,,Overcast,360,2013-02-16 04:37:00
11:57 PM,38.8,36.5,91,30.04,10.0,North,9.2,-,N/A,,Overcast,350,2013-02-16 04:57:00